Hourly Data Report for October 16, 2018

MONTREAL INTL A
QUEBEC
Current Station Operator: NAVCAN

45°28'14.000" N
73°44'27.000" W
36.00 m
7025251
71627
YUL

Download Data

Hourly Data (October 2018)
Hourly Data Report for October 16, 2018
TIME
LST
Temp Definition
°C
Dew Point Definition
°C
Rel Hum Definition
%
Precip. Amount Definition
mm

Wind Dir Definition
10's deg

Wind Spd Definition
km/h
Visibility Definition
km
Stn Press Definition
kPa
Hmdx Definition


Wind Chill Definition


Weather Definition


00:00 5.9 -0.2 65   25 43 24.1 100.39     LegendNANA
01:00 5.6 -1.9 59   25 49 24.1 100.50     Mostly Cloudy
02:00 5.2 -1.8 60   24 52 24.1 100.57     LegendNANA
03:00 4.8 -1.4 64   25 37 24.1 100.67     LegendNANA
04:00 4.8 -0.6 68   25 33 24.1 100.79     Cloudy
05:00 4.8 -0.5 68   26 29 24.1 100.89     LegendNANA
06:00 4.4 -1.7 64   27 31 24.1 100.97     LegendNANA
07:00 4.1 -3.0 60   28 30 24.1 101.07     Mainly Clear
08:00 4.6 -2.3 61   29 33 24.1 101.13     LegendNANA
09:00 4.7 -2.7 59   28 34 48.3 101.19     LegendNANA
10:00 5.1 -2.2 59   25 32 48.3 101.25     Mostly Cloudy
11:00 5.9 -1.7 58   26 26 48.3 101.23     LegendNANA
12:00 7.0 -2.3 51   26 30 48.3 101.15     LegendNANA
13:00 7.9 -1.5 51   28 26 48.3 101.05     Mostly Cloudy
14:00 8.1 -1.1 52   25 19 48.3 100.98     LegendNANA
15:00 8.4 -0.6 53   23 18 48.3 100.95     LegendNANA
16:00 8.6 -0.4 53   23 21 48.3 100.87     Mostly Cloudy
17:00 7.8 0.6 60   24 15 48.3 100.84     LegendNANA
18:00 7.8 0.6 61   24 26 24.1 100.82     LegendNANA
19:00 7.4 1.8 68   24 20 24.1 100.82     Mostly Cloudy
20:00 7.5 1.1 64   24 23 24.1 100.79     LegendNANA
21:00 7.5 1.7 67   23 17 24.1 100.77     LegendNANA
22:00 7.9 3.4 73   22 16 24.1 100.71     Cloudy
23:00 7.8 3.1 72   21 24 24.1 100.62     LegendNANA

Notes on Data Quality.

Legend

  • E = Estimated
  • M = Missing
  • NA = Not Available*
  • [empty] = Indicates an unobserved value
Date modified: